• In Italy
  • List of Countries
  • For 7 days
  • Water Temperature
  • Satellite Maps
  • Weather Map
  • Weather Widgets
  • user-avatar
    Login

    Hourly Weather Pontypool

    Today, 26 May, Saturday

    Time Temperature Precipitation Wind Pressure Humidity
    00:00 +12°C° 0 mm 2 mps 750 mmHg 97%
    01:00 +11°C° 0 mm 3 mps 750 mmHg 97%
    02:00 +11°C° 0 mm 3 mps 750 mmHg 97%
    03:00 +11°C° 0 mm 3 mps 750 mmHg 98%
    04:00 +12°C° 0 mm 3 mps 750 mmHg 97%
    05:00 +12°C° 0 mm 4 mps 750 mmHg 97%
    06:00 +13°C° 0 mm 4 mps 750 mmHg 96%
    07:00 +13°C° 0 mm 4 mps 750 mmHg 95%
    08:00 +13°C° 0 mm 4 mps 750 mmHg 94%
    09:00 +14°C° 0 mm 5 mps 750 mmHg 94%
    10:00 +15°C° 0 mm 5 mps 750 mmHg 91%
    11:00 +16°C° 0 mm 5 mps 750 mmHg 88%
    12:00 +17°C° 0 mm 6 mps 750 mmHg 85%
    13:00 +19°C° 0.4 mm 6 mps 749 mmHg 84%
    14:00 +21°C° 0.4 mm 6 mps 749 mmHg 82%
    15:00 +22°C° 0.4 mm 7 mps 749 mmHg 80%
    16:00 +21°C° 0.3 mm 7 mps 748 mmHg 82%
    17:00 +21°C° 0.3 mm 7 mps 748 mmHg 83%
    18:00 +20°C° 0.3 mm 7 mps 748 mmHg 85%
    19:00 +18°C° 0.2 mm 7 mps 748 mmHg 86%
    20:00 +17°C° 0.2 mm 7 mps 748 mmHg 87%
    21:00 +16°C° 0.2 mm 8 mps 748 mmHg 88%
    22:00 +15°C° 0.1 mm 7 mps 748 mmHg 88%
    23:00 +15°C° 0.1 mm 7 mps 747 mmHg 88%

    Tomorrow, 27 May, Sunday

    Time Temperature Precipitation Wind Pressure Humidity
    00:00 +14°C° 0.1 mm 7 mps 747 mmHg 88%
    01:00 +14°C° 0.1 mm 6 mps 747 mmHg 90%
    02:00 +13°C° 0.1 mm 6 mps 746 mmHg 92%
    03:00 +13°C° 0.1 mm 5 mps 746 mmHg 94%
    04:00 +14°C° 0.9 mm 5 mps 746 mmHg 94%
    05:00 +14°C° 0.9 mm 5 mps 746 mmHg 95%
    06:00 +15°C° 0.9 mm 5 mps 746 mmHg 95%
    07:00 +16°C° 0.7 mm 5 mps 746 mmHg 94%
    08:00 +16°C° 0.7 mm 5 mps 746 mmHg 93%
    09:00 +17°C° 0.7 mm 5 mps 747 mmHg 92%
    10:00 +19°C° 1.1 mm 5 mps 747 mmHg 91%
    11:00 +19°C° 1.1 mm 4 mps 747 mmHg 90%
    12:00 +20°C° 1.1 mm 4 mps 746 mmHg 89%
    13:00 +20°C° 0.9 mm 4 mps 746 mmHg 86%
    14:00 +21°C° 0.9 mm 3 mps 746 mmHg 83%
    15:00 +22°C° 0.9 mm 3 mps 746 mmHg 80%
    16:00 +23°C° 0.4 mm 2 mps 746 mmHg 81%
    17:00 +23°C° 0.4 mm 2 mps 746 mmHg 82%
    18:00 +23°C° 0.4 mm 2 mps 746 mmHg 83%
    19:00 +21°C° 0.2 mm 1 mps 746 mmHg 86%
    20:00 +19°C° 0.2 mm 1 mps 747 mmHg 89%
    21:00 +18°C° 0.2 mm 1 mps 747 mmHg 91%
    22:00 +16°C° 0 mm 1 mps 747 mmHg 92%
    23:00 +16°C° 0 mm 1 mps 747 mmHg 93%

    Day after tomorrow, 28 May, Monday

    Time Temperature Precipitation Wind Pressure Humidity
    00:00 +15°C° 0 mm 1 mps 747 mmHg 94%
    01:00 +15°C° 0 mm 1 mps 747 mmHg 95%
    02:00 +15°C° 0 mm 1 mps 747 mmHg 95%
    03:00 +15°C° 0 mm 1 mps 747 mmHg 96%
    04:00 +15°C° 0 mm 1 mps 748 mmHg 96%
    05:00 +15°C° 0 mm 2 mps 748 mmHg 96%
    06:00 +16°C° 0 mm 2 mps 748 mmHg 95%
    07:00 +17°C° 0 mm 2 mps 748 mmHg 93%
    08:00 +18°C° 0 mm 2 mps 749 mmHg 90%
    09:00 +19°C° 0 mm 2 mps 749 mmHg 87%
    10:00 +19°C° 0 mm 2 mps 749 mmHg 85%
    11:00 +20°C° 0 mm 2 mps 749 mmHg 84%
    12:00 +21°C° 0 mm 2 mps 749 mmHg 82%
    13:00 +21°C° 0 mm 2 mps 749 mmHg 82%
    14:00 +21°C° 0 mm 3 mps 749 mmHg 82%
    15:00 +21°C° 0 mm 3 mps 749 mmHg 82%
    16:00 +21°C° 0 mm 3 mps 749 mmHg 84%
    17:00 +21°C° 0 mm 3 mps 749 mmHg 85%
    18:00 +21°C° 0 mm 3 mps 749 mmHg 87%
    19:00 +20°C° 0 mm 3 mps 749 mmHg 90%
    20:00 +19°C° 0 mm 3 mps 749 mmHg 93%
    21:00 +18°C° 0 mm 3 mps 749 mmHg 95%
    22:00 +17°C° 0 mm 3 mps 749 mmHg 96%
    23:00 +17°C° 0 mm 4 mps 749 mmHg 96%

    29 May, Tuesday

    Time Temperature Precipitation Wind Pressure Humidity
    00:00 +15°C° 0 mm 4 mps 749 mmHg 97%
    01:00 +14°C° 0.1 mm 4 mps 749 mmHg 96%
    02:00 +14°C° 0.1 mm 4 mps 749 mmHg 96%
    03:00 +13°C° 0.1 mm 4 mps 749 mmHg 96%
    04:00 +13°C° 0 mm 4 mps 748 mmHg 95%
    05:00 +13°C° 0 mm 5 mps 748 mmHg 94%
    06:00 +13°C° 0 mm 5 mps 748 mmHg 93%
    07:00 +14°C° 0 mm 5 mps 748 mmHg 90%
    08:00 +16°C° 0 mm 5 mps 748 mmHg 87%
    09:00 +17°C° 0 mm 5 mps 748 mmHg 84%
    10:00 +19°C° 0 mm 5 mps 748 mmHg 83%
    11:00 +20°C° 0 mm 6 mps 748 mmHg 82%
    12:00 +21°C° 0 mm 6 mps 748 mmHg 81%
    13:00 +22°C° 0.3 mm 6 mps 747 mmHg 80%
    14:00 +22°C° 0.3 mm 6 mps 747 mmHg 80%
    15:00 +23°C° 0.3 mm 6 mps 747 mmHg 79%
    16:00 +22°C° 1 mm 6 mps 747 mmHg 81%
    17:00 +21°C° 1 mm 5 mps 746 mmHg 83%
    18:00 +21°C° 1 mm 5 mps 746 mmHg 86%
    19:00 +19°C° 0.3 mm 5 mps 746 mmHg 87%
    20:00 +17°C° 0.3 mm 5 mps 746 mmHg 89%
    21:00 +16°C° 0.3 mm 5 mps 746 mmHg 91%
    22:00 +15°C° 0.1 mm 5 mps 746 mmHg 91%
    23:00 +14°C° 0.1 mm 5 mps 746 mmHg 92%

    30 May, Wednesday

    Time Temperature Precipitation Wind Pressure Humidity
    00:00 +13°C° 0.1 mm 5 mps 746 mmHg 93%
    01:00 +12°C° 0 mm 4 mps 746 mmHg 93%
    02:00 +12°C° 0 mm 4 mps 746 mmHg 93%
    03:00 +11°C° 0 mm 4 mps 745 mmHg 93%
    04:00 +11°C° 0.1 mm 4 mps 745 mmHg 93%
    05:00 +11°C° 0.1 mm 4 mps 745 mmHg 93%
    06:00 +11°C° 0.1 mm 4 mps 745 mmHg 93%
    07:00 +12°C° 0.1 mm 4 mps 745 mmHg 91%
    08:00 +13°C° 0.1 mm 4 mps 746 mmHg 90%
    09:00 +14°C° 0.1 mm 4 mps 746 mmHg 89%
    10:00 +15°C° 0 mm 4 mps 746 mmHg 86%
    11:00 +17°C° 0 mm 4 mps 746 mmHg 83%
    12:00 +18°C° 0 mm 4 mps 746 mmHg 80%
    13:00 +18°C° 0 mm 4 mps 745 mmHg 79%
    14:00 +19°C° 0 mm 3 mps 745 mmHg 79%
    15:00 +19°C° 0 mm 3 mps 745 mmHg 78%
    16:00 +19°C° 0 mm 3 mps 745 mmHg 80%
    17:00 +18°C° 0 mm 3 mps 745 mmHg 82%
    18:00 +18°C° 0 mm 3 mps 745 mmHg 85%
    19:00 +17°C° 0 mm 3 mps 745 mmHg 88%
    20:00 +16°C° 0 mm 2 mps 745 mmHg 91%
    21:00 +15°C° 0 mm 2 mps 745 mmHg 94%
    22:00 +14°C° 0 mm 2 mps 745 mmHg 94%
    23:00 +14°C° 0 mm 2 mps 745 mmHg 94%

    31 May, Thursday

    Time Temperature Precipitation Wind Pressure Humidity
    00:00 +14°C° 0 mm 2 mps 745 mmHg 95%
    01:00 +14°C° 0 mm 2 mps 745 mmHg 95%
    02:00 +13°C° 0 mm 2 mps 745 mmHg 96%
    03:00 +13°C° 0 mm 2 mps 745 mmHg 96%
    04:00 +14°C° 0 mm 2 mps 745 mmHg 96%
    05:00 +14°C° 0 mm 2 mps 745 mmHg 95%
    06:00 +14°C° 0 mm 3 mps 745 mmHg 94%
    07:00 +16°C° 0 mm 3 mps 746 mmHg 92%
    08:00 +16°C° 0 mm 3 mps 746 mmHg 90%
    09:00 +17°C° 0 mm 3 mps 746 mmHg 88%
    10:00 +18°C° 0 mm 2 mps 746 mmHg 86%
    11:00 +18°C° 0 mm 2 mps 746 mmHg 85%
    12:00 +19°C° 0 mm 2 mps 747 mmHg 84%
    13:00 +19°C° 0.1 mm 2 mps 747 mmHg 83%
    14:00 +20°C° 0.1 mm 2 mps 746 mmHg 81%
    15:00 +20°C° 0.1 mm 2 mps 746 mmHg 80%
    16:00 +20°C° 0.1 mm 2 mps 747 mmHg 81%
    17:00 +20°C° 0.1 mm 2 mps 747 mmHg 82%
    18:00 +20°C° 0.1 mm 2 mps 747 mmHg 83%
    19:00 +19°C° 0.1 mm 2 mps 747 mmHg 87%
    20:00 +18°C° 0.1 mm 2 mps 747 mmHg 90%
    21:00 +17°C° 0.1 mm 2 mps 748 mmHg 94%
    22:00 +16°C° 0 mm 1 mps 748 mmHg 94%
    23:00 +16°C° 0 mm 1 mps 748 mmHg 95%
    Show more